Theta_e
313 314 318 317 317 314 318 319 321 324 324 322 321 335 338 341 346 347 354 355 351 349 349 345 343 339 335 333 341 344 345 344 343 343 343 335 331 338 340 339 343 348 348 347 345 344 338 327 325
314 320 319 309 311 313 313 317 322 323 320 315 317 319 326 337 347 355 355 355 351 349 348 343 341 336 334 332 337 342 344 344 344 344 344 337 331 338 339 340 346 348 347 346 342 336 328 325 325
313 321 317 314 309 312 312 315 317 314 314 316 316 318 322 347 353 354 355 355 355 350 346 343 340 335 332 329 331 338 342 343 344 344 343 338 332 336 340 342 345 347 344 342 336 328 326 327 328
318 316 311 316 313 311 312 313 311 312 314 312 315 315 316 330 352 354 355 354 355 352 346 342 340 336 332 329 328 330 336 340 342 342 342 338 332 334 340 342 343 341 339 337 331 326 325 328 330
315 309 312 315 314 313 312 312 312 312 313 313 313 316 316 348 356 356 356 355 355 355 350 343 341 336 332 328 327 328 330 335 337 340 340 337 331 332 339 341 339 338 337 334 327 325 325 327 328
313 307 312 311 311 312 312 311 313 313 312 314 314 315 318 353 344 355 357 357 355 354 353 347 342 337 333 328 326 326 329 331 334 337 337 334 329 331 338 339 338 337 336 333 328 325 324 325 329
313 310 312 312 312 314 315 314 314 314 316 318 314 318 317 324 339 346 357 356 356 354 354 351 345 338 334 330 326 326 328 330 332 333 334 332 328 333 338 339 339 337 336 334 333 330 326 324 325
310 312 317 315 315 316 316 314 316 314 317 317 318 318 317 319 322 347 357 357 356 355 355 354 351 341 335 331 327 326 327 329 330 331 333 331 329 334 338 339 339 336 334 334 333 332 329 326 324
310 313 315 317 318 315 313 312 315 314 315 316 317 317 318 318 344 353 354 357 356 356 355 355 354 345 337 334 329 328 328 328 329 330 332 333 331 334 338 338 339 336 335 334 332 333 328 325 324
310 311 314 315 314 313 312 313 314 315 316 314 315 315 317 318 351 351 353 355 356 356 355 355 355 351 342 336 332 330 330 330 330 330 332 334 333 332 335 339 338 336 334 331 332 334 330 323 324
310 311 311 314 313 314 313 314 314 315 316 315 314 315 314 316 353 351 352 353 355 355 354 354 356 352 346 342 338 333 334 333 331 330 331 333 336 337 338 339 339 336 333 332 335 335 328 323 324
314 313 313 313 313 312 314 313 313 314 314 314 313 313 313 314 316 352 352 353 353 354 353 354 352 353 349 345 344 340 338 337 336 334 333 335 340 343 339 339 338 338 337 337 337 335 326 323 323
313 312 313 312 311 310 311 312 313 312 312 314 314 314 313 313 313 324 355 355 354 351 353 353 352 352 350 349 346 343 343 340 338 336 337 336 338 340 340 340 341 340 339 336 335 333 325 324 324
311 311 310 311 311 310 311 311 311 313 313 314 313 313 313 313 313 314 345 354 354 352 352 352 352 350 350 350 348 345 343 341 339 336 336 334 331 332 336 340 340 338 335 333 332 328 326 326 325
312 312 310 310 311 308 309 310 309 310 312 311 311 311 313 312 313 313 315 345 355 354 352 352 352 349 349 351 349 346 345 342 340 338 336 334 331 329 327 337 338 333 331 331 329 329 327 325 325
309 307 305 305 307 306 310 307 309 309 311 312 310 311 312 311 312 314 315 314 333 355 353 351 351 350 349 350 350 348 346 344 342 340 337 336 334 331 329 331 333 330 331 331 332 330 328 327 334
302 305 304 305 306 305 308 307 307 308 311 311 309 309 310 312 312 313 314 316 316 334 354 352 351 350 349 349 349 348 347 345 344 341 338 337 336 334 331 327 328 328 330 332 334 333 327 331 337
306 305 304 304 305 305 304 305 307 309 309 308 307 308 310 311 310 311 313 315 316 316 349 352 351 350 349 349 348 347 346 345 346 343 340 338 338 337 331 326 326 331 333 337 339 338 331 332 337
304 304 304 305 306 304 307 307 307 307 306 306 305 307 308 308 309 311 312 314 314 315 343 352 350 351 350 349 348 347 346 344 346 344 342 340 339 339 333 326 329 332 339 340 340 336 335 335 337
306 306 306 306 306 309 308 309 308 308 306 306 306 308 307 306 309 310 311 312 313 314 341 350 350 350 350 349 348 347 346 345 345 345 343 341 340 340 337 329 335 339 341 341 341 337 337 337 338
308 308 307 308 310 308 307 308 308 308 305 306 306 305 306 308 309 310 311 313 315 314 341 347 349 348 350 349 347 346 345 344 345 344 344 343 342 341 340 334 331 339 342 341 341 341 337 338 342
309 308 309 310 310 311 308 313 309 308 309 310 312 314 317 316 317 316 316 316 315 315 323 344 346 346 349 348 346 343 342 341 341 340 341 342 343 342 342 339 331 334 343 344 341 342 340 339 342
309 309 310 310 309 309 309 307 306 314 319 318 317 318 316 317 317 317 317 317 318 316 312 340 343 344 347 347 345 343 342 341 339 340 340 341 342 342 342 341 335 333 343 344 343 340 340 338 340
309 308 309 305 306 305 308 311 311 320 318 317 314 314 312 311 312 314 315 317 319 319 318 335 341 341 344 345 343 342 341 340 338 338 338 339 340 341 340 339 337 331 339 344 343 341 341 339 337
307 308 306 308 308 309 308 313 310 319 318 315 312 311 311 310 308 310 312 315 318 320 322 316 340 339 342 342 341 340 339 339 338 336 337 338 339 339 338 338 336 334 333 342 344 342 342 342 338
309 312 309 311 311 313 313 315 313 317 314 311 310 309 309 309 307 307 308 311 316 317 318 321 335 339 340 341 340 339 339 337 337 337 336 337 339 338 338 337 337 336 332 338 343 343 342 343 340
312 315 314 320 316 318 312 312 316 315 312 309 308 307 307 307 307 306 308 310 315 314 315 317 322 336 338 340 341 340 339 339 337 337 337 338 338 338 338 337 337 338 338 337 338 342 342 341 341
313 313 316 311 318 318 314 313 314 316 311 308 308 306 305 305 306 305 305 307 309 310 312 313 315 320 326 340 340 342 340 340 340 339 338 338 339 339 339 338 338 338 339 340 339 341 341 341 341
310 314 316 318 316 319 317 315 315 312 309 308 307 306 305 304 305 304 303 304 306 306 307 310 311 313 316 321 337 342 342 343 341 342 342 341 341 340 340 340 339 339 339 340 340 340 340 340 340
311 313 314 319 315 319 319 317 313 310 309 308 306 305 304 303 304 304 302 302 303 304 305 307 309 310 311 314 322 338 346 343 343 343 343 344 344 344 343 343 342 341 340 340 341 341 340 341 340
Wind_Speed
5 1 3 4 3 5 4 6 2 3 6 3 5 4 7 4 5 5 14 24 36 47 45 42 38 37 35 35 36 36 36 36 35 34 32 32 33 33 31 29 27 23 20 19 17 16 14 14 15
4 4 4 2 4 1 6 4 1 1 5 10 9 6 7 9 4 2 7 15 37 47 47 46 41 38 36 36 36 36 36 36 34 34 32 31 33 32 30 29 26 22 20 19 17 15 15 15 15
4 3 3 4 3 6 5 3 2 6 8 4 6 5 5 6 2 7 8 23 32 46 47 45 41 38 37 37 36 36 36 36 35 33 32 31 32 32 30 29 26 22 19 18 16 16 15 14 14
3 5 4 4 7 7 5 3 7 8 6 9 5 8 7 8 10 3 12 31 34 42 47 45 42 38 37 36 36 36 35 35 35 33 32 32 32 32 30 28 24 21 19 18 16 15 14 13 14
5 3 3 0 6 5 4 3 3 7 5 5 6 6 7 6 17 3 19 32 34 27 40 46 41 39 35 34 35 34 34 34 34 34 33 32 32 33 31 27 24 21 20 18 16 15 15 14 13
4 3 3 4 5 3 5 5 3 2 5 12 7 7 7 7 20 3 13 30 32 35 34 41 41 39 37 34 33 34 33 33 32 33 33 33 33 33 30 27 23 21 20 18 16 15 14 13 12
6 4 3 3 3 3 2 6 4 5 5 6 8 9 7 10 19 12 15 17 30 34 33 35 39 38 37 35 34 33 32 32 32 32 32 32 32 32 29 26 23 22 19 17 15 14 13 12 11
4 4 2 3 4 5 2 11 5 7 12 6 5 6 9 21 37 15 18 22 26 35 34 28 33 39 37 36 34 34 32 32 31 31 31 31 31 31 29 25 23 22 19 16 14 12 11 10 10
3 4 2 3 5 8 6 9 3 7 6 5 7 6 16 31 20 10 13 19 22 27 31 27 30 41 40 37 35 34 32 31 31 31 31 30 30 30 28 26 23 21 19 16 14 11 10 9 9
5 4 6 3 4 7 7 9 13 10 16 4 11 12 23 27 4 11 11 15 24 28 32 28 28 37 42 40 37 35 34 32 31 31 31 30 29 29 28 25 23 21 19 16 14 12 10 10 9
1 3 4 5 5 6 8 8 7 12 10 11 13 18 14 18 7 11 14 15 17 18 24 27 26 31 40 37 39 38 37 35 33 31 30 30 29 28 27 24 22 21 19 17 15 13 11 10 8
2 5 4 5 6 6 13 10 7 10 12 10 11 11 8 16 11 12 17 18 19 21 25 23 25 28 35 34 37 37 38 36 35 33 32 31 24 22 26 26 24 22 21 19 16 14 12 10 8
4 4 3 7 9 8 9 8 10 11 12 8 8 10 10 13 12 19 22 24 24 24 27 26 28 27 28 26 31 34 33 35 36 35 33 31 29 27 28 29 27 25 23 20 17 15 12 10 8
3 5 7 7 8 5 6 10 7 6 9 7 8 10 10 11 13 17 13 21 27 30 33 32 31 31 28 29 28 30 32 35 36 37 36 34 32 31 31 32 29 27 23 20 16 15 12 9 9
3 4 6 4 5 6 4 6 8 10 8 9 9 9 10 10 18 13 19 24 30 36 38 38 36 33 33 31 33 33 32 35 38 38 37 35 33 31 30 32 30 26 23 19 17 15 11 10 10
4 3 4 5 5 8 1 13 8 13 8 15 12 11 10 12 10 24 27 21 27 26 36 42 40 39 34 34 34 33 34 34 37 38 40 36 33 31 29 30 29 25 22 20 19 16 13 12 9
6 5 6 7 5 6 4 11 9 16 15 13 12 11 10 10 13 24 30 30 22 26 35 39 43 41 40 33 34 30 28 30 34 39 41 37 35 32 30 30 29 26 23 22 20 18 14 13 9
8 7 6 7 7 5 8 13 8 10 12 15 15 14 9 11 16 24 31 33 33 22 36 34 42 43 43 36 33 31 28 29 30 39 43 40 37 34 31 31 29 25 24 23 21 19 16 13 6
6 5 10 13 8 5 14 19 16 16 15 18 13 12 10 11 15 22 30 29 34 26 27 33 33 37 39 38 36 32 30 27 27 33 37 41 39 37 34 32 29 27 25 24 21 18 17 13 9
4 6 7 9 5 9 12 23 19 18 14 18 17 11 13 8 13 15 21 27 29 26 28 36 38 40 44 39 40 31 32 28 28 33 39 41 40 39 38 35 31 28 26 24 21 21 16 12 14
3 6 5 9 17 5 6 15 6 16 8 14 16 12 10 8 11 10 11 20 27 19 25 35 40 42 43 41 34 29 30 26 29 34 39 44 42 41 39 38 36 32 29 27 24 24 23 14 19
4 2 7 15 7 6 6 12 2 9 14 11 14 12 12 10 11 10 14 13 22 25 17 28 38 40 41 39 38 38 36 26 33 30 32 36 43 42 40 39 38 36 32 30 28 24 24 19 21
8 9 12 13 7 4 1 1 6 7 12 17 16 18 18 17 14 15 15 20 23 23 20 26 31 34 37 40 41 39 32 30 26 27 33 39 41 41 41 41 39 39 35 30 30 28 25 22 21
9 5 10 2 2 2 4 1 3 4 4 12 17 17 18 21 20 17 21 23 25 29 33 17 28 31 34 37 36 39 37 32 27 28 29 31 33 37 39 39 40 40 39 32 32 31 26 28 24
10 7 5 6 4 4 3 5 7 3 4 10 16 17 17 17 18 19 21 19 27 32 32 22 24 28 32 34 36 35 33 34 37 36 33 30 30 33 38 38 39 40 42 36 34 31 28 27 29
3 3 3 4 3 8 10 5 5 5 7 10 12 12 15 16 15 18 20 19 24 30 33 34 11 21 29 34 36 36 35 34 35 35 32 33 35 40 40 39 38 38 38 41 36 34 32 28 27
2 1 3 5 5 5 4 6 2 6 12 16 14 16 17 16 15 18 19 23 25 30 32 33 28 10 19 27 32 37 36 35 33 34 38 36 34 33 37 39 40 38 37 38 38 37 35 32 27
0 1 2 2 5 5 5 5 4 10 15 17 22 21 20 20 21 17 17 24 30 29 31 33 32 26 18 13 21 26 32 36 36 38 38 37 37 34 34 35 38 39 39 39 38 35 34 32 29
2 1 1 3 3 3 4 5 3 5 10 13 17 19 17 19 15 17 17 25 24 29 29 31 32 30 28 24 7 21 27 28 30 35 37 39 36 36 34 35 35 37 39 39 37 32 33 31 30
5 4 3 3 2 4 4 6 5 5 7 15 18 17 17 15 16 14 17 22 25 25 28 28 30 30 29 29 23 14 23 28 29 33 36 35 36 34 35 34 33 33 35 34 32 34 29 32 33
Wind_Direction
7 23 113 54 51 62 259 258 264 6 347 10 267 257 237 228 187 244 335 172 168 165 168 170 173 171 167 162 157 157 160 159 156 154 155 156 158 159 158 157 158 155 151 150 149 148 146 140 133
38 112 72 81 100 126 257 251 258 231 335 323 311 344 309 277 186 316 120 187 176 167 168 170 173 172 169 166 163 161 159 161 161 160 160 161 163 163 161 160 161 161 157 157 155 153 149 145 140
111 102 86 101 128 205 231 222 124 316 310 323 335 296 270 280 225 192 194 181 178 168 171 171 173 173 170 169 167 167 165 164 164 164 165 166 167 167 164 164 167 167 164 162 158 155 154 150 145
128 25 39 101 221 255 199 153 346 351 338 357 320 309 308 284 339 291 186 173 179 172 174 172 175 174 172 171 171 172 172 170 169 170 171 171 171 169 167 167 170 171 167 164 161 159 159 157 151
57 61 61 249 255 278 327 330 344 327 288 300 321 285 278 15 359 333 175 169 175 178 175 174 176 174 174 174 174 175 175 176 175 174 175 175 174 172 170 170 172 174 170 166 164 165 167 167 162
47 90 80 243 249 327 306 242 264 308 344 312 344 304 274 12 8 13 172 168 180 177 179 178 177 177 175 177 177 177 178 178 178 177 177 177 176 175 173 174 176 175 173 169 169 171 174 173 170
111 89 220 280 272 10 310 352 7 344 348 302 314 325 277 4 337 316 189 183 179 179 179 181 181 182 177 178 179 179 179 179 178 179 179 178 177 176 176 176 178 178 177 174 174 179 179 179 180
99 86 35 301 338 288 338 358 331 0 307 277 341 299 307 313 316 278 186 184 184 179 181 180 184 183 182 180 181 180 180 181 180 180 181 180 179 179 179 179 182 182 181 179 179 185 187 188 187
121 55 15 283 333 295 319 335 330 279 275 319 296 280 288 306 317 173 168 174 183 180 182 185 187 186 185 183 183 181 182 183 183 184 183 182 182 183 184 185 186 187 189 189 188 191 192 197 200
80 111 219 219 275 286 304 324 317 327 315 269 316 303 297 309 221 176 194 207 191 190 188 189 191 190 188 185 183 184 182 184 185 186 185 186 186 186 189 190 191 195 200 199 200 201 202 204 207
103 168 224 264 276 298 298 301 303 307 303 304 301 305 310 306 228 196 209 212 219 214 195 193 196 192 189 185 184 185 185 185 186 187 187 188 188 189 193 193 196 200 204 207 206 209 214 216 218
6 256 248 275 294 327 307 307 293 273 287 279 291 289 300 309 289 235 210 207 205 205 203 197 203 198 193 188 187 185 186 187 186 188 188 189 184 187 195 196 199 201 206 210 213 215 221 223 224
166 246 225 285 299 281 282 279 280 289 287 290 311 315 312 311 305 303 226 199 195 204 203 198 202 202 199 196 188 189 186 188 189 189 191 193 192 190 195 197 200 204 207 213 216 221 225 228 233
261 291 288 278 285 260 267 294 328 295 292 298 303 299 300 296 302 311 250 211 193 196 203 199 203 202 199 201 195 189 190 194 195 195 197 199 200 200 200 200 204 209 212 217 221 227 230 233 235
249 299 328 282 281 287 323 307 292 278 300 298 288 289 288 287 301 294 300 242 214 201 204 197 196 203 203 198 197 195 195 200 199 200 201 204 205 208 209 206 208 213 215 218 222 230 232 237 241
347 57 353 270 279 267 80 297 273 290 305 302 297 285 289 292 287 301 309 301 245 226 195 197 195 199 201 199 198 196 197 201 203 205 207 208 207 210 212 212 214 215 216 218 222 227 228 232 231
354 277 268 300 236 278 218 293 282 296 297 286 291 286 280 292 296 296 302 308 295 242 210 197 191 194 196 197 197 197 198 203 208 209 212 209 209 210 213 216 218 216 217 221 225 227 223 226 229
289 300 271 264 298 299 291 284 284 287 287 281 280 284 277 287 285 288 295 302 298 266 220 205 194 190 188 191 193 196 201 207 211 212 213 209 210 211 213 218 219 217 218 222 227 229 224 221 206
265 260 258 285 278 320 300 286 286 280 279 286 271 271 271 267 281 289 291 299 312 282 216 199 193 190 183 186 188 194 201 204 208 213 215 213 210 212 214 217 217 217 219 222 223 218 217 214 191
288 287 278 282 295 302 293 289 283 294 277 272 271 268 277 299 299 299 297 310 314 282 211 193 191 190 189 189 190 195 199 204 208 211 216 217 215 214 216 217 215 216 217 221 218 214 209 209 186
284 262 293 289 316 231 291 286 341 312 278 285 293 278 296 300 301 315 312 314 318 319 218 190 190 192 191 192 183 187 195 199 205 213 218 217 217 217 218 220 219 217 220 222 222 221 220 193 187
309 280 307 306 332 302 69 292 357 343 354 354 353 351 343 323 331 328 319 321 321 326 271 208 192 192 194 185 181 188 184 189 211 206 206 215 218 218 220 222 222 219 220 225 224 226 223 209 181
250 305 274 283 271 335 272 256 275 6 359 347 348 350 348 344 336 330 328 323 326 339 329 224 203 197 191 188 188 188 192 202 205 201 205 210 217 218 220 221 224 222 221 224 226 227 221 209 199
296 336 320 59 103 20 238 134 273 5 329 344 345 343 344 341 338 333 334 339 350 3 355 251 204 201 196 191 192 192 195 194 193 191 194 200 206 211 217 220 224 224 222 225 223 228 227 218 218
16 17 342 353 360 234 221 316 247 211 39 29 339 333 337 334 336 338 338 345 353 4 360 336 214 201 196 195 196 198 198 198 198 192 191 190 195 206 214 216 218 220 221 224 223 224 223 223 222
336 100 145 286 283 292 282 234 263 134 56 7 351 330 332 333 334 341 337 334 350 360 4 358 287 212 198 197 199 198 198 199 203 201 196 197 197 207 211 215 219 220 224 225 225 227 227 222 222
311 97 147 272 269 273 251 287 287 33 3 359 345 341 342 332 338 348 339 340 353 359 1 1 8 328 224 213 205 200 199 201 202 206 211 208 207 210 213 215 218 222 225 227 228 229 230 226 221
242 204 16 325 294 283 270 274 249 1 350 345 347 343 339 337 341 350 344 345 354 353 354 357 3 8 8 241 227 218 210 205 202 206 206 209 215 217 216 218 218 221 226 230 228 226 228 225 219
335 167 230 258 223 284 302 259 91 28 358 342 337 331 335 332 335 341 344 345 344 349 350 350 353 357 357 4 288 233 222 216 209 205 205 213 216 217 219 222 221 223 225 228 226 222 225 219 212
193 190 170 256 274 254 267 278 109 68 356 353 336 327 327 330 331 336 340 341 343 341 341 345 343 344 347 346 351 252 228 219 217 211 211 212 217 218 220 223 225 226 226 223 215 218 217 212 202